Date,TemperatureHighF,TemperatureAvgF,TemperatureLowF,DewpointHighF,DewpointAvgF,DewpointLowF,HumidityHigh,HumidityAvg,HumidityLow,PressureMaxIn,PressureMinIn,WindSpeedMaxMPH,WindSpeedAvgMPH,GustSpeedMaxMPH,PrecipitationSumIn
2013-3-1,40.0,36.3,33.2,26.7,23.8,18.8,66,60,55,29.92,29.76,21,3,21,0.00
2013-3-2,35.6,31.6,27.6,22.6,19.4,15.5,72,60,50,29.91,29.83,15,3,18,0.00
2013-3-3,40.9,32.3,27.5,20.0,16.0,11.8,65,51,36,29.94,29.83,30,6,30,0.00
2013-3-4,47.4,34.0,24.5,16.4,10.9,7.6,55,39,22,30.06,29.91,35,6,35,0.00
2013-3-5,48.3,39.3,31.5,31.2,20.8,9.6,97,50,28,30.07,29.75,17,3,17,0.07
2013-3-6,39.7,35.4,30.9,32.6,29.8,25.4,98,81,58,30.03,29.59,33,9,33,1.12
2013-3-7,44.0,38.8,34.1,27.4,25.2,23.5,68,58,46,30.22,30.00,29,6,31,0.00
2013-3-8,43.7,38.2,31.5,28.6,25.1,21.6,78,59,49,30.30,30.19,34,6,34,0.00
2013-3-9,60.3,44.9,34.4,32.5,26.0,21.2,64,49,25,30.34,30.26,22,3,22,0.00
2013-3-10,62.0,47.3,35.1,33.8,26.1,19.8,70,45,27,30.31,30.20,17,4,17,0.00
2013-3-11,55.3,47.3,37.3,50.0,36.3,23.8,95,66,42,30.23,29.90,15,2,15,0.02
2013-3-12,59.3,52.5,41.2,55.3,44.8,27.6,100,77,46,29.95,29.70,27,4,27,2.03
2013-3-13,46.8,38.8,30.0,30.7,21.8,12.8,83,52,30,30.10,29.91,29,6,30,0.00
2013-3-14,46.4,36.0,27.9,17.9,14.3,11.1,56,42,24,30.18,30.06,30,5,30,0.00
2013-3-15,57.7,42.5,26.9,34.4,24.1,13.4,73,49,34,30.12,29.80,21,4,24,0.00
2013-3-16,62.5,49.3,39.4,54.3,42.4,31.7,98,78,52,29.88,29.61,19,2,20,0.19
2013-3-17,41.0,34.6,30.9,36.7,33.3,30.0,97,95,90,30.29,29.86,10,1,10,0.14
2013-3-18,32.2,30.9,30.0,31.2,30.3,29.4,99,97,95,30.31,29.91,11,2,11,0.33
2013-3-19,58.0,41.0,29.4,44.0,23.8,0.0,100,64,15,29.96,29.75,37,5,37,0.23
2013-3-20,50.4,42.3,30.9,22.9,11.2,2.7,50,28,17,30.02,29.76,29,6,29,0.00
2013-3-21,41.9,31.1,25.8,27.0,13.3,5.7,69,48,33,29.94,29.76,27,6,29,0.00
2013-3-22,48.9,35.8,24.4,19.3,13.0,7.4,58,40,26,30.00,29.89,25,5,25,0.00
2013-3-23,55.1,40.9,27.5,21.7,17.4,13.6,68,40,22,30.05,29.90,16,3,16,0.00
2013-3-24,42.6,33.6,30.1,29.6,23.8,17.7,97,69,46,30.00,29.65,15,2,15,0.02
2013-3-25,37.9,32.5,29.7,35.5,30.8,25.5,99,94,68,29.72,29.54,12,1,13,0.65
2013-3-26,43.6,38.2,31.2,29.9,26.7,22.1,85,64,46,30.06,29.71,22,4,22,0.04
2013-3-27,46.2,39.2,32.9,27.9,24.1,19.8,77,55,39,30.17,30.03,33,8,33,0.00
2013-3-28,46.2,39.5,32.0,27.2,24.2,22.3,70,55,43,30.26,30.10,31,5,31,0.00
2013-3-29,55.0,42.8,31.3,33.0,25.9,21.5,81,54,29,30.29,30.16,20,3,20,0.00
2013-3-30,60.0,44.9,34.0,32.9,26.9,23.7,75,52,26,30.23,30.08,10,3,22,0.00
2013-3-31,51.0,45.3,40.9,46.5,39.0,26.4,96,80,47,30.10,29.75,16,2,16,0.09